www.pogodaiklimat.ru

Погода и климат >> Архив погоды >> Таиланд >> Пхетчабун


ПОГОДА в Пхетчабуне

  • Прогноз погоды в Пхетчабуне
  • Монитор погоды в Пхетчабуне

АРХИВ ПОГОДЫ в Пхетчабуне

Время (UTC), дата Ветер
(напр.,м/с)
 
Видим.   Явления Облачность Т
(С)
Тd
(С)
f
(%)
Тe
(С)
Тes
(С)
Комфортность P
(гПа)
Po
(гПа)
Тmin
(С)
Tmax
(С)
R
(мм)
R24
(мм)
S
(см)
06 17.02 штиль 0 8000 м гроза, ливневой дождь 8/5 600 м
[Cb cap Ac As Cs]
+25.2 +22.8 87 +33 +41 очень
душно
1011.4 998.1 24
09 17.02 штиль 0 10 км 8/1 600 м
[Cu med, cong Ac lent Cs]
+28.7 +21.9 67 +37 +41 очень
душно
1006.9 993.8
12 17.02 штиль 0 8000 м дымка 5/1 600 м
[Cb cap Cs]
+27.0 +22.6 77 +36 +36 очень
душно
1007.6 994.4 +29.0
15 17.02 штиль 0 8000 м слаб. дождь 10/5 600 м
[Cu Sc Ac lent Cs]
+24.8 +23.0 90 +33 +33 очень
душно
1009.5 996.1 0.5
18 17.02 штиль 0 8000 м дымка {дождь} 10/4 600 м
[Sc Ac lent Cs]
+24.8 +22.4 87 +32 +32 очень
душно
1009.2 995.9 24
21 17.02 штиль 0 8000 м дымка 4/1 600 м
[Sc Cs]
+24.0 +21.7 87 +31 +31 очень
душно
1008.6 995.2
00 18.02 штиль 0 8000 м дымка 4/1 600 м
[Sc Cs]
+24.0 +21.6 86 +31 +31 очень
душно
1009.6 996.3 +23.8 24
03 18.02 штиль 0 8000 м дымка 4/3 600 м
[Sc Ci]
+28.8 +22.8 70 +38 +49 очень
душно
1012.0 998.8
06 18.02 штиль 0 8000 м мгла 4/3 600 м
[Cu med, cong Cs]
+33.2 +20.5 47 +40 +55 опасность
солнечного
удара
1009.6 996.6
09 18.02 штиль 0 8000 м мгла 4/3 600 м
[Cu med, cong Cs]
+34.7 +15.6 32 +37 +41 очень
душно
1006.2 993.3
12 18.02 штиль 0 8000 м мгла 4/1 600 м
[Cu med, cong Cs]
+30.0 +18.4 50 +35 +35 очень
душно
1007.6 994.5 +35.0
15 18.02 штиль 0 8000 м дымка ясно +24.7 +18.0 66 +29 +29 душно 1009.6 996.3
18 18.02 штиль 0 8000 м дымка ясно +22.0 +18.0 78 +27 +27 душно 1009.7 996.3
21 18.02 штиль 0 8000 м дымка ясно +20.5 +18.1 86 +24 +24 комфорт 1009.7 996.2
00 19.02 штиль 0 7000 м дымка ясно +20.0 +17.6 86 +23 +23 комфорт 1011.9 998.3 +19.5
03 19.02 штиль 0 7000 м мгла ясно +27.4 +19.2 61 +33 +49 очень
душно
1013.7 1000.5
06 19.02 Ю 2 8000 м мгла 1/1 600 м
[Cu hum]
+33.4 +21.6 50 +41 +57 опасность
перегрева
1010.8 997.9
09 19.02 Ю 2 8000 м мгла 3/3 600 м
[Cu med, cong]
+35.0 +21.0 44 +42 +46 опасность
перегрева
1008.1 995.2
12 19.02 штиль 0 8000 м мгла 4/4 600 м
[Cu med, cong]
+32.0 +22.5 57 +41 +41 опасность
перегрева
1009.7 996.6 +35.8
15 19.02 штиль 0 8000 м дымка 3/3 600 м
[Cu hum]
+28.0 +22.1 70 +36 +36 очень
душно
1012.1 998.9
18 19.02 штиль 0 7000 м дымка ясно +25.5 +21.7 80 +33 +33 очень
душно
1012.3 999.0
21 19.02 штиль 0 7000 м дымка ясно +23.0 +20.7 87 +30 +30 очень
душно
1011.7 998.2
00 20.02 штиль 0 6000 м дымка ясно +21.9 +20.3 91 +28 +28 душно 1013.8 1000.3 +21.3
03 20.02 штиль 0 7000 м дымка ясно +29.0 +22.4 68 +38 +54 опасность
солнечного
удара
1015.3 1002.1
06 20.02 штиль 0 8000 м мгла 1/1 600 м
[Cu med, cong]
+34.6 +20.3 43 +41 +62 опасность
перегрева
1012.5 999.6
09 20.02 Ю 2 8000 м мгла 1/1 600 м
[Cu med, cong]
+36.4 +18.0 34 +40 +45 очень
душно
1009.3 996.5
12 20.02 штиль 0 8000 м мгла ясно +32.2 +19.8 48 +38 +38 очень
душно
1010.5 997.5 +36.9
15 20.02 штиль 0 7000 м мгла ясно +28.6 +20.9 63 +36 +36 очень
душно
1012.3 999.1
18 20.02 штиль 0 7000 м дымка ясно +24.6 +19.8 75 +30 +30 очень
душно
1012.6 999.2
21 20.02 штиль 0 6000 м дымка ясно +22.4 +19.4 83 +28 +28 душно 1012.2 998.7
00 21.02 штиль 0 6000 м дымка ясно +20.8 +18.9 89 +25 +25 комфорт 1014.0 1000.4 +20.4
03 21.02 штиль 0 8000 м мгла ясно +29.0 +20.7 61 +36 +52 опасность
солнечного
удара
1014.9 1001.7
06 21.02 штиль 0 8000 м мгла 1/1 600 м
[Cu med, cong]
+35.5 +20.9 43 +43 +63 опасность
перегрева
1011.5 998.6
09 21.02 штиль 0 8000 м мгла 3/3 600 м
[Cb cap]
+36.5 +20.1 38 +42 +47 опасность
перегрева
1008.5 995.7
12 21.02 штиль 0 7000 м мгла 1/1 600 м
[Cu hum]
+32.0 +20.1 49 +38 +38 очень
душно
1008.9 995.9 +37.2
15 21.02 штиль 0 7000 м мгла ясно +27.7 +20.1 63 +34 +34 очень
душно
1010.7 997.5
18 21.02 штиль 0 6000 м дымка ясно +24.3 +20.1 77 +30 +30 очень
душно
1010.5 997.1
21 21.02 штиль 0 6000 м дымка ясно +22.3 +19.3 83 +28 +28 душно 1009.9 996.4
00 22.02 штиль 0 6000 м дымка ясно +21.0 +18.9 88 +25 +26 комфорт 1011.2 997.7 +20.5
03 22.02 штиль 0 7000 м мгла ясно +28.4 +20.4 62 +35 +51 опасность
солнечного
удара
1012.1 998.9
06 22.02 ЮВ 2 7000 м мгла 1/1 600 м
[Cu med, cong]
+35.6 +19.9 40 +41 +57 опасность
перегрева
1008.9 996.1
09 22.02 штиль 0 7000 м мгла 3/3 600 м
[Cu med, cong]
+36.6 +21.0 40 +43 +48 опасность
перегрева
1005.7 993.0
12 22.02 штиль 0 7000 м мгла ясно +32.5 +20.0 48 +39 +39 очень
душно
1006.3 993.4 +37.5
15 22.02 штиль 0 7000 м мгла ясно +28.3 +20.8 64 +35 +35 очень
душно
1008.7 995.5
18 22.02 штиль 0 6000 м дымка ясно +25.0 +21.2 79 +32 +32 очень
душно
1008.7 995.4
21 22.02 штиль 0 6000 м дымка ясно +23.7 +20.5 82 +29 +29 душно 1008.4 995.0
00 23.02 штиль 0 8000 м дымка ясно +22.2 +19.5 85 +28 +29 душно 1009.7 996.2 +22.0
03 23.02 штиль 0 8000 м мгла ясно +28.5 +21.2 65 +36 +53 опасность
солнечного
удара
1011.0 997.8
06 23.02 штиль 0 8000 м мгла 1/1 600 м
[Cu med, cong]
+35.5 +22.5 47 +45 +66 опасность
перегрева
1007.7 994.9
09 23.02 штиль 0 8000 м мгла 1/1 600 м
[Cu med, cong]
+37.5 +19.6 35 +42 +49 опасность
перегрева
1004.6 991.8
12 23.02 штиль 0 7000 м мгла 1/1 600 м
[Cu hum]
+33.5 +20.3 46 +40 +40 очень
душно
1005.8 992.9 +37.7
15 23.02 штиль 0 7000 м мгла ясно +28.3 +20.2 62 +35 +35 очень
душно
1008.2 995.1
18 23.02 штиль 0 7000 м дымка ясно +24.5 +19.0 71 +29 +29 душно 1008.7 995.4
21 23.02 штиль 0 7000 м дымка ясно +23.0 +19.9 83 +30 +30 очень
душно
1007.7 994.4
00 24.02 штиль 0 7000 м дымка ясно +21.5 +18.3 82 +26 +27 душно 1009.4 995.9 +21.2

 

Местоположение метеостанции Пхетчабун (Таиланд): широта 16.43 долгота 101.15 высота над уровнем моря 116 м.

В архиве по умолчанию представлена погода в Пхетчабуне за последнюю неделю. Архивные данные за месяц целиком и за предыдущие месяцы, начиная с января 2011 года, Вы можете получить, выбрав интересующий диапазон дат из раскрывающегося списка и нажав кнопку "Ввод!".


*Определитесь, кто Вы:
робот инопланетянин человек

Внимание! Время в таблицах - всемирное. Для получения местного времени необходимо прибавить поправку, которая равна 7 ч.

Смотрите также архив погоды в соседних городах и на ближайших метеорологических станциях:

Погода в Ломсаке (Таиланд) (39 км)
Погода в Вичан Бури (Таиланд) (89 км)
Погода в Пичит Агромете (Таиланд) (93 км)
Погода в Пхитсанулоке (Таиланд) (103 км)
Погода в Чайяпхуме (Таиланд) (117 км)
Погода в Лоей Агромете (Таиланд) (124 км)
Погода в Накхон Саван (Таиланд) (127 км)
Погода в Буа Чум (Таиланд) (129 км)
Погода в Лоэй (Таиланд) (129 км)
Погода в Такфа Агромете (Таиланд) (139 км)

Пояснения к столбцам:

Ветер - указаны скорость ветра в м/с - средняя за 10 мин, порывы в срок и между сроками (в фигурных скобках) и направление, откуда дует ветер: С - северный, СВ - северо-восточный, В - восточный, ЮВ - юго-восточный, Ю - южный, ЮЗ - юго-западный, З - западный, СЗ - северо-западный.
Видимость - горизонтальная дальность видимости в метрах или километрах. При видимости от 1 до 10 км при отсутствии осадков обычно наблюдается дымка, при ухудшении видимости до 1 км и менее - туман. В сухую погоду видимость может ухудшаться дымом, пылью или мглою.
Явления - указаны атмосферные явления, наблюдавшиеся в срок или в последний час перед сроком; фигурными скобками обозначены явления, наблюдавшиеся между сроками (за 1-3 часа до срока); квадратными скобками обозначены град или гололедные отложения с указанием их диаметра в мм.
Облачность - указаны через наклонную черту общая и нижняя облачность в баллах и высота нижней границы облаков в метрах; квадратными скобками обозначены формы облаков: Ci - перистые, Cs - перисто-слоистые, Cc - перисто-кучевые, Ac - высококучевые, As - высокослоистые, Sc - слоисто-кучевые, Ns - слоисто-дождевые, Cu - кучевые, Cb - кучево-дождевые. Подробнее классификацию облаков см. в Атласе облаков (PDF).
T - Температура воздуха - температура, измеренная на высоте 2 м над землей.
Td - Температура точки росы - температура, при понижении до которой содержащийся в воздухе водяной пар достигнет насыщения.
f - Относительная влажность воздуха - влажноcть воздуха, измеренная на высоте 2 м над землей.
Te - Эффективная температура - температура, которую ощущает одетый по сезону человек в тени. Характеристика душности погоды. При расчете учитывается влияние влажности воздуха и скорости ветра на теплоощущения человека.
Tes - Эффективная температура на солнце - температура, которую ощущает человек, с поправкой на солнечный нагрев. Характеристика знойности погоды. Зависит от высоты солнца над горизонтом, облачности и скорости ветра. Ночью, в пасмурную погоду, а также при ветре 12 м/с и более поправка равна нулю.
P - Атмосферное давление - приведенное к уровню моря атмосферное давление.
Po - Атмосферное давление - измеренное на уровне метеостанции атмосферное давление.
Tmin - Минимальная температура - минимум температуры воздуха на высоте 2 м над землей.
Tmax - Максимальная температура - максимум температуры воздуха на высоте 2 м над землей.
R - Количество осадков - Количество выпавших осадков за период времени, мм. При наведении курсора мыши на число - период времени, за который выпало указанное количество осадков.
R24 - Количество осадков - Количество выпавших осадков за 24 часа, мм.
S - Снежный покров - Высота снежного покрова, см. При наведении курсора мыши на число - состояние снежного покрова и степень покрытия местности в баллах.